Weather History for KCRG - February, 2013

Change the Weather History Date:

Monday, February 4, 2013

  Actual Average Record
Temperature  
Mean Temperature 52 °F -  
Max Temperature 64 °F 63 °F 80 °F (1999)
Min Temperature 39 °F 44 °F 32 °F (2009)
Degree Days  
Heating Degree Days 14    
Growing Degree Days 2 (Base 50)    
Moisture  
Dew Point 39 °F    
Average Humidity 64    
Maximum Humidity 83    
Minimum Humidity 33    
Precipitation  
Precipitation 0.00 in - - ()
Sea Level Pressure  
Sea Level Pressure 30.10 in    
Wind  
Wind Speed 1 mph (ENE)    
Max Wind Speed 7 mph    
Max Gust Speed -    
Visibility 10 miles    
Events      
Averages and records for this station are not official NWS values.
T = Trace of Precipitation, MM = Missing Value Source: NWS Daily Summary

Daily Weather History Graph

Daily Weather History Graph

Search for Another Location

Airport or City:

Trip Planner

Search our weather history database for the weather conditions in past years. The results will help you decide how hot, cold, wet, or windy it might be!

Date:

Astronomy

Feb. 04, 2013 Rise Set
Actual Time 7:14 AM EST 6:05 PM EST
Civil Twilight 6:49 AM EST 6:30 PM EST
Nautical Twilight 6:21 AM EST 6:59 PM EST
Astronomical Twilight 5:52 AM EST 7:27 PM EST
Moon 1:44 AM EST (2/4) 12:34 PM EST (2/4)
Length of Visible Light 11h 40m
Length of Day
10h 50m
Last Quarter, 37% of the Moon is Illuminated
Feb 4
Last Quarter
Feb 10
New
Feb 17
First Quarter
Feb 25
Full
Mar 4
Last Quarter

Hourly Weather History & Observations

Time (EST) Temp. Dew Point Humidity Pressure Visibility Wind Dir Wind Speed Gust Speed Precip Events Conditions
12:53 AM 44.1 °F 35.1 °F 71% 30.10 in 10.0 mi Calm Calm - N/A   Clear
1:53 AM 42.1 °F 36.0 °F 79% 30.10 in 10.0 mi Calm Calm - N/A   Clear
2:53 AM 42.1 °F 36.0 °F 79% 30.09 in 10.0 mi Calm Calm - N/A   Clear
3:53 AM 43.0 °F 36.0 °F 76% 30.10 in 10.0 mi Calm Calm - N/A   Clear
5:53 AM 41.0 °F 35.1 °F 79% 30.12 in 10.0 mi Calm Calm - N/A   Clear
6:53 AM 39.9 °F 35.1 °F 83% 30.14 in 10.0 mi Calm Calm - N/A   Clear
7:53 AM 41.0 °F 36.0 °F 82% 30.14 in 10.0 mi Calm Calm - N/A   Clear
8:53 AM 48.9 °F 42.1 °F 77% 30.15 in 10.0 mi Calm Calm - N/A   Clear
9:53 AM 57.0 °F 36.0 °F 45% 30.14 in 10.0 mi ENE 4.6 mph - N/A   Clear
10:53 AM 60.1 °F 32.0 °F 35% 30.13 in 10.0 mi ENE 5.8 mph - N/A   Clear
11:53 AM 64.0 °F 34.0 °F 33% 30.12 in 10.0 mi Variable 4.6 mph - N/A   Clear
12:53 PM 63.0 °F 37.9 °F 40% 30.11 in 10.0 mi Variable 3.5 mph - N/A   Clear
1:53 PM 61.0 °F 42.1 °F 50% 30.08 in 10.0 mi NE 6.9 mph - N/A   Clear
2:53 PM 62.1 °F 41.0 °F 46% 30.09 in 10.0 mi North 3.5 mph - N/A   Clear
3:53 PM 61.0 °F 41.0 °F 48% 30.09 in 10.0 mi East 4.6 mph - N/A   Clear
4:53 PM 60.1 °F 41.0 °F 49% 30.09 in 10.0 mi East 4.6 mph - N/A   Clear
5:53 PM 57.9 °F 43.0 °F 58% 30.08 in 10.0 mi ESE 3.5 mph - N/A   Clear
6:53 PM 54.0 °F 45.0 °F 72% 30.08 in 10.0 mi Calm Calm - N/A   Clear
7:53 PM 54.0 °F 45.0 °F 72% 30.08 in 10.0 mi Calm Calm - N/A   Clear
8:53 PM 53.1 °F 44.1 °F 71% 30.09 in 10.0 mi Calm Calm - N/A   Clear
9:53 PM 53.1 °F 45.0 °F 74% 30.09 in 10.0 mi Calm Calm - N/A   Clear
10:53 PM 52.0 °F 45.0 °F 77% 30.09 in 10.0 mi Calm Calm - N/A   Clear
11:53 PM 53.1 °F 44.1 °F 71% 30.06 in 10.0 mi Calm Calm - N/A   Clear